Location: Baumgartsau
(48.4586°N, 14.0864°E)
Time: 18:47:12
(UTC+00:00)

Ariane Rocket - Pass Details

Date: 09 April 2020
Orbit: 761 x 769 km, 98.7° (Epoch: 04 June)

Event Time Altitude Azimuth Distance (km) Brightness Sun altitude
Rises 18:26:04 0° 167° (SSE) 3,217 5.9 -7.1°
Reaches altitude 10° 18:28:22 10° 169° (SSE) 2,294 5.2 -7.5°
Maximum altitude 18:33:25 79° 255° (WSW) 784 3.2 -8.2°
Drops below altitude 10° 18:38:31 10° 343° (NNW) 2,307 6.1 -9.0°
Sets 18:40:50 0° 345° (NNW) 3,237 6.8 -9.4°
